Regional Weather Roundup
Issued by NWS

Home | Current Version | Previous Version | Text Only | Print | Product List | Glossary Off
Versions: 1 2 3 4 5 6 7 8 9 10 11 12 13 14 15 16 17 18 19 20 21 22 23 24 25 26 27 28 29 30 31 32 33 34 35 36 37 38 39 40 41 42 43 44 45 46 47 48 49 50

000
ASUS45 KABQ 280501
RWRNM
WEATHER ROUNDUP FOR NEW MEXICO
NATIONAL WEATHER SERVICE ALBUQUERQUE NM
1000 PM MST FRI FEB 27 2015

NOTE: "FAIR" MEANS FEW OR NO CLOUDS BELOW 12,000 FEET AGL WITH NO
       SIGNIFICANT WEATHER OR OBSTRUCTIONS TO VISION.

      THIS PRODUCT IS RELEASED AS TWO VERSIONS.  ONE VERSION NEAR
      THE TOP OF THE HOUR CONTAINING PRELIMINARY DATA FROM ALBUQUERQUE
      AND OTHER STATIONS.  A FINAL VERSION WITH ADDITIONAL DATA IS
      ISSUED ABOUT 10 MINUTES AFTER THE HOUR.

NMZ501-503-504-510>518-280600-
NORTHWEST PLATEAU/NORTHCENTRAL MOUNTAINS

CITY           SKY/WX    TMP DP  RH WIND       PRES   REMARKS
FARMINGTON     LGT SNOW  29  27  92 E9        29.79F FOG     WCI  20
SANTA FE       SNOW      16  13  88 S12       29.91R VSB 1/2 WCI   3
TAOS           CLOUDY    19  12  73 NW6       29.85S VSB 3/4 WCI  11
ANGEL FIRE     LGT SNOW  20  18  93 CALM      29.82S

$$
NMZ402-403-502-505>509-280600-
WESTCENTRAL MOUNTAINS/SOUTHWEST MOUNTAINS

CITY           SKY/WX    TMP DP  RH WIND       PRES   REMARKS
GALLUP         MOCLDY    32  30  92 E5        29.77S WCI  27
SILVER CITY    PTCLDY    37  23  56 SW5       29.89S WCI  34

$$
NMZ407-409-411-412-280600-
SOUTHERN DESERTS

CITY           SKY/WX    TMP DP  RH WIND       PRES   REMARKS
DEMING         PTCLDY    36  23  59 MISG      29.87S
HOLLOMAN AFB   MOCLDY    29  21  69 SW10      29.94S WCI  20
ALAMOGORDO     PTCLDY    30  23  74 MISG      29.95S
T OR C         CLEAR     35  29  78 CALM      29.88R

$$
NMZ519>523-280600-
CENTRAL VALLEYS/CENTRAL HIGHLANDS

CITY           SKY/WX    TMP DP  RH WIND       PRES   REMARKS
ALBUQUERQUE    LGT SNOW  22  20  92 N9        29.93R VSB 1   WCI  12
DOUBLE EAGLE   FLURRIES  20  17  90 NE9       29.90F WCI   9
MORIARTY ARPT  LGT SNOW  15  12  89 SE9       29.94F WCI   3
CLINES CORNERS FOG       11   8  88 SE12      29.87S VSB 1/2 WCI  -3
BELEN          FLURRIES  26  26  98 N3        29.91S
SOCORRO        NOT AVBL

$$
NMZ524>526-539-540-280600-
SOUTHCENTRAL MOUNTAINS

CITY           SKY/WX    TMP DP  RH WIND       PRES   REMARKS
RUIDOSO        NOT AVBL

$$
NMZ527>531-280600-
NORTHEAST HIGHLANDS/NORTHEAST PLAINS

CITY           SKY/WX    TMP DP  RH WIND       PRES   REMARKS
LAS VEGAS      LGT SNOW   8   4  83 S14       29.89F VSB 1   WCI  -8
RATON          LGT SNOW  10   7  87 S7        29.92F FOG     WCI  -1
CLAYTON        LGT SNOW  11   8  88 S14       30.05R FOG     WCI  -5

$$
NMZ532>537-280600-
EASTCENTRAL PLAINS

CITY           SKY/WX    TMP DP  RH WIND       PRES   REMARKS
TUCUMCARI      CLOUDY    15  10  80 S12       30.13S WCI   2
CANNON AFB     NOT AVBL
CLOVIS AIRPORT CLOUDY    10   9  92 SE9       30.14S WCI  -2

$$
NMZ028-029-538-280600-
SOUTHEAST PLAINS

CITY           SKY/WX    TMP DP  RH WIND       PRES   REMARKS
ROSWELL        CLOUDY    22  18  85 SE12      30.14S WCI  10
ARTESIA        CLOUDY    21  21 100 SE13      30.16S WCI   9
CARLSBAD       CLOUDY    24  19  81 SE14      30.16S WCI  12
HOBBS          CLOUDY    18  18 100 E13       30.17S FOG     WCI   4


$$



USA.gov is the U.S. government's official web portal to all federal, state and local government web resources and services.